contact:dominique.lefevre@mio.osupytheas.fr, maurice.libes@osupytheas.fr, didier.mallarino@osupytheas.fr
Project:EMSO http://www.emso-fr.org/EMSO-France
Depth: 2436.0 m
Title:EMSO Ligure Ouest : Data MII capteur AQUADOPP
Date,Latitude,Longitude,X_East,Y_North,Z_Up,Amplitude_X,Amplitude_Y,Amplitude_Z,Batterie,SoundSpeed,Heading,Pitch,Roll,Pressure,TIS,Speed,Direction
, degrees North, degrees East, m.s-1, m.s-1,m.s-1, 1, 1, 1, Volt, m.s-1, degree, degree, degree, dbar, degree_C, m.s-1, degree
2020-11-14T00:04:03,42.805,6.029,-0.019,0.002,-0.013,105.0,109.0,104.0,13.4,1505.3,322.7,-0.7,1.8,2470.324,13.32,0.019,276.0
2020-11-14T00:07:03,42.805,6.029,0.0,-0.001,-0.026,106.0,108.0,103.0,13.4,1505.3,325.0,-0.7,1.8,2470.339,13.33,0.001,180.0
2020-11-14T00:10:03,42.805,6.029,0.001,-0.001,-0.013,107.0,108.0,103.0,13.4,1505.3,322.7,-0.7,1.8,2470.354,13.33,0.001,135.0
2020-11-14T00:13:03,42.805,6.029,-0.012,-0.003,-0.009,106.0,108.0,103.0,13.3,1505.3,325.4,-0.7,1.8,2470.297,13.33,0.012,256.0
2020-11-14T00:16:03,42.805,6.029,-0.01,0.018,0.008,104.0,106.0,103.0,13.4,1505.4,324.7,-0.8,1.8,2470.288,13.34,0.02,330.9
2020-11-14T00:19:03,42.805,6.029,0.007,-0.009,0.022,104.0,107.0,103.0,13.4,1505.4,324.6,-0.7,1.8,2470.309,13.34,0.011,142.1
2020-11-14T00:22:03,42.805,6.029,-0.01,-0.001,0.041,105.0,108.0,102.0,13.4,1505.4,324.4,-0.7,1.8,2470.326,13.34,0.01,264.3
2020-11-14T00:25:03,42.805,6.029,-0.028,0.016,-0.022,105.0,108.0,103.0,13.3,1505.4,323.9,-0.7,1.8,2470.312,13.34,0.032,299.7
2020-11-14T00:28:03,42.805,6.029,0.002,-0.005,0.014,106.0,109.0,102.0,13.4,1505.4,324.2,-0.7,1.8,2470.312,13.34,0.005,158.2
2020-11-14T00:31:03,42.805,6.029,-0.007,0.027,0.007,105.0,108.0,101.0,13.3,1505.4,324.9,-0.7,1.8,2470.275,13.34,0.027,345.5
2020-11-14T00:34:03,42.805,6.029,-0.008,0.017,0.011,104.0,108.0,103.0,13.4,1505.4,325.6,-0.7,1.8,2470.33,13.34,0.018,334.8
2020-11-14T00:37:03,42.805,6.029,0.009,-0.01,-0.009,105.0,107.0,103.0,13.3,1505.4,326.1,-0.7,1.8,2470.283,13.34,0.013,138.0
2020-11-14T00:40:03,42.805,6.029,-0.004,-0.001,-0.003,107.0,107.0,101.0,13.4,1505.4,326.3,-0.7,1.8,2470.301,13.34,0.004,256.0
2020-11-14T00:43:03,42.805,6.029,-0.019,-0.007,0.0,106.0,109.0,102.0,13.4,1505.4,324.8,-0.7,1.8,2470.299,13.34,0.02,249.8
2020-11-14T00:46:03,42.805,6.029,-0.025,0.018,0.006,105.0,108.0,102.0,13.3,1505.4,323.4,-0.7,1.8,2470.296,13.34,0.03,305.8
2020-11-14T00:49:03,42.805,6.029,-0.01,0.015,0.025,105.0,109.0,102.0,13.4,1505.4,324.3,-0.7,1.8,2470.308,13.34,0.018,326.3
2020-11-14T00:52:03,42.805,6.029,-0.03,0.005,-0.018,104.0,108.0,102.0,13.3,1505.4,327.7,-0.7,1.8,2470.3,13.34,0.03,279.5
2020-11-14T00:55:03,42.805,6.029,-0.007,0.0,-0.005,106.0,108.0,102.0,13.3,1505.4,325.5,-0.7,1.8,2470.317,13.34,0.007,270.0
2020-11-14T00:58:03,42.805,6.029,-0.002,-0.007,-0.019,104.0,109.0,102.0,13.4,1505.4,326.4,-0.7,1.8,2470.32,13.34,0.007,195.9
2020-11-14T01:04:03,42.805,6.029,-0.057,0.0,0.0,106.0,110.0,103.0,13.4,1505.3,324.2,-0.7,1.8,2470.332,13.32,0.057,270.0
2020-11-14T01:07:03,42.805,6.029,-0.011,-0.002,-0.004,105.0,108.0,103.0,13.4,1505.3,324.1,-0.7,1.8,2470.316,13.33,0.011,259.7
2020-11-14T01:10:03,42.805,6.029,-0.006,0.014,0.035,104.0,108.0,102.0,13.4,1505.3,323.8,-0.7,1.8,2470.304,13.33,0.015,336.8
2020-11-14T01:13:03,42.805,6.029,-0.021,0.012,-0.016,106.0,109.0,102.0,13.4,1505.4,324.5,-0.7,1.8,2470.311,13.34,0.024,299.7
2020-11-14T01:16:03,42.805,6.029,-0.006,0.009,-0.005,103.0,109.0,103.0,13.4,1505.4,327.5,-0.7,1.8,2470.348,13.34,0.01,326.3
2020-11-14T01:19:03,42.805,6.029,-0.024,-0.009,0.01,105.0,106.0,103.0,13.4,1505.4,324.6,-0.7,1.8,2470.281,13.34,0.025,249.4
2020-11-14T01:22:02,42.805,6.029,0.005,-0.006,0.029,105.0,108.0,102.0,13.3,1505.4,327.5,-0.7,1.8,2470.329,13.34,0.007,140.2
2020-11-14T01:25:03,42.805,6.029,-0.013,0.002,0.005,105.0,108.0,103.0,13.4,1505.4,323.6,-0.7,1.8,2470.3,13.34,0.013,278.7
2020-11-14T01:28:03,42.805,6.029,-0.008,0.012,0.027,106.0,108.0,102.0,13.4,1505.4,326.0,-0.7,1.8,2470.319,13.34,0.014,326.3
2020-11-14T01:31:03,42.805,6.029,-0.021,0.005,-0.019,104.0,108.0,102.0,13.3,1505.4,326.8,-0.7,1.8,2470.287,13.34,0.021,283.4
2020-11-14T01:34:03,42.805,6.029,-0.012,0.01,0.001,105.0,109.0,103.0,13.4,1505.4,326.1,-0.7,1.8,2470.308,13.34,0.015,309.8
2020-11-14T01:37:03,42.805,6.029,-0.041,0.0,0.0,106.0,109.0,103.0,13.3,1505.4,326.4,-0.7,1.8,2470.34,13.34,0.041,270.0
2020-11-14T01:40:03,42.805,6.029,0.005,-0.014,-0.01,106.0,108.0,102.0,13.4,1505.4,327.0,-0.7,1.8,2470.318,13.34,0.014,160.4
2020-11-14T01:43:03,42.805,6.029,-0.022,0.008,-0.033,104.0,108.0,103.0,13.3,1505.4,326.5,-0.7,1.8,2470.317,13.34,0.023,290.0
2020-11-14T01:46:03,42.805,6.029,0.009,0.009,0.005,107.0,108.0,102.0,13.3,1505.4,325.7,-0.7,1.8,2470.326,13.34,0.012,45.0
2020-11-14T01:49:03,42.805,6.029,0.006,0.007,0.021,103.0,108.0,103.0,13.4,1505.4,326.4,-0.7,1.8,2470.318,13.34,0.009,40.6
2020-11-14T01:52:03,42.805,6.029,-0.014,0.016,0.0,107.0,108.0,102.0,13.4,1505.4,326.3,-0.7,1.8,2470.314,13.34,0.021,318.8
2020-11-14T01:55:03,42.805,6.029,0.022,-0.003,0.007,104.0,107.0,103.0,13.4,1505.4,325.7,-0.7,1.9,2470.322,13.34,0.022,97.8
2020-11-14T01:58:03,42.805,6.029,-0.011,0.008,0.0,104.0,108.0,103.0,13.4,1505.4,326.5,-0.7,1.8,2470.337,13.34,0.013,306.0
2020-11-14T02:04:03,42.805,6.029,-0.051,0.014,-0.021,103.0,107.0,103.0,13.4,1505.3,326.4,-0.7,1.8,2470.377,13.32,0.052,285.3
2020-11-14T02:07:03,42.805,6.029,-0.009,-0.002,0.026,106.0,108.0,102.0,13.4,1505.3,325.8,-0.7,1.9,2470.355,13.33,0.009,257.5
2020-11-14T02:10:03,42.805,6.029,0.008,0.026,0.033,106.0,109.0,103.0,13.4,1505.3,326.6,-0.7,1.8,2470.351,13.33,0.027,17.1
2020-11-14T02:13:03,42.805,6.029,-0.009,-0.009,-0.021,105.0,109.0,103.0,13.4,1505.3,327.7,-0.7,1.8,2470.355,13.33,0.012,225.0
2020-11-14T02:16:03,42.805,6.029,0.027,0.002,0.023,107.0,108.0,103.0,13.4,1505.4,325.8,-0.7,1.8,2470.346,13.34,0.027,85.8
2020-11-14T02:19:03,42.805,6.029,-0.006,0.026,0.016,105.0,107.0,103.0,13.4,1505.4,323.5,-0.7,1.9,2470.36,13.34,0.026,347.0
2020-11-14T02:28:03,42.805,6.029,-0.026,0.015,-0.004,105.0,108.0,103.0,13.4,1505.3,326.7,-0.7,1.8,2470.393,13.32,0.03,300.0
2020-11-14T02:31:03,42.805,6.029,0.005,0.007,0.014,107.0,107.0,102.0,13.4,1505.3,325.2,-0.7,1.8,2470.433,13.33,0.008,35.5
2020-11-14T02:34:03,42.805,6.029,-0.009,0.009,0.018,104.0,107.0,102.0,13.4,1505.3,326.8,-0.6,1.8,2470.401,13.33,0.012,315.0
2020-11-14T02:37:03,42.805,6.029,-0.01,0.016,0.035,105.0,108.0,103.0,13.4,1505.3,324.4,-0.7,1.8,2470.385,13.33,0.018,328.0
2020-11-14T02:40:03,42.805,6.029,-0.003,-0.002,0.002,106.0,107.0,102.0,13.3,1505.4,324.7,-0.8,1.8,2470.38,13.34,0.003,236.3
2020-11-14T02:43:03,42.805,6.029,-0.01,0.006,0.014,104.0,107.0,103.0,13.4,1505.4,326.3,-0.7,1.9,2470.334,13.34,0.011,301.0
2020-11-14T02:46:03,42.805,6.029,-0.003,0.003,-0.019,105.0,108.0,103.0,13.4,1505.4,325.5,-0.7,1.8,2470.373,13.34,0.004,315.0
2020-11-14T02:49:03,42.805,6.029,-0.015,0.009,0.012,105.0,107.0,101.0,13.3,1505.4,328.3,-0.7,1.8,2470.357,13.34,0.017,301.0
2020-11-14T02:52:03,42.805,6.029,0.003,0.003,0.011,104.0,108.0,102.0,13.3,1505.4,326.5,-0.7,1.8,2470.411,13.34,0.004,45.0
2020-11-14T02:55:03,42.805,6.029,-0.011,0.006,0.014,104.0,107.0,102.0,13.4,1505.4,326.7,-0.7,1.8,2470.375,13.34,0.012,298.6
2020-11-14T02:58:03,42.805,6.029,-0.037,0.008,-0.01,105.0,107.0,102.0,13.4,1505.4,324.2,-0.7,1.8,2470.367,13.34,0.037,282.2
2020-11-14T03:04:03,42.805,6.029,-0.008,0.0,-0.009,105.0,109.0,102.0,13.4,1505.3,326.0,-0.7,1.8,2470.424,13.32,0.008,270.0
2020-11-14T03:07:03,42.805,6.029,0.002,0.006,0.014,105.0,108.0,101.0,13.3,1505.3,326.0,-0.7,1.8,2470.434,13.33,0.006,18.4
2020-11-14T03:10:03,42.805,6.029,0.003,0.005,0.014,104.0,108.0,102.0,13.4,1505.3,326.9,-0.7,1.8,2470.43,13.33,0.005,31.0
2020-11-14T03:13:03,42.805,6.029,-0.016,0.001,0.007,105.0,107.0,102.0,13.4,1505.3,324.1,-0.7,1.8,2470.444,13.33,0.016,273.6
2020-11-14T03:16:03,42.805,6.029,0.003,0.004,0.015,106.0,107.0,102.0,13.4,1505.4,327.9,-0.7,1.9,2470.406,13.34,0.005,36.9
2020-11-14T03:19:03,42.805,6.029,-0.017,0.003,0.008,104.0,108.0,104.0,13.3,1505.4,326.0,-0.7,1.8,2470.409,13.34,0.017,280.0
2020-11-14T03:22:03,42.805,6.029,-0.009,-0.004,0.017,105.0,108.0,102.0,13.4,1505.4,327.6,-0.7,1.8,2470.438,13.34,0.009,246.0
2020-11-14T03:25:03,42.805,6.029,-0.01,0.014,0.02,104.0,107.0,103.0,13.4,1505.4,324.4,-0.7,1.8,2470.447,13.34,0.017,324.5
2020-11-14T03:28:03,42.805,6.029,0.006,0.021,0.004,104.0,107.0,102.0,13.4,1505.4,323.6,-0.7,1.8,2470.409,13.34,0.021,15.9
2020-11-14T03:31:03,42.805,6.029,-0.016,0.01,0.02,105.0,106.0,102.0,13.3,1505.4,323.2,-0.7,1.8,2470.42,13.34,0.018,302.0
2020-11-14T03:34:03,42.805,6.029,0.018,0.003,0.021,106.0,109.0,102.0,13.4,1505.4,326.7,-0.7,1.8,2470.431,13.34,0.018,80.5
2020-11-14T03:37:03,42.805,6.029,0.007,0.012,0.032,104.0,109.0,103.0,13.4,1505.4,324.3,-0.7,1.8,2470.439,13.34,0.013,30.3
2020-11-14T03:40:03,42.805,6.029,-0.032,0.012,-0.013,102.0,108.0,103.0,13.4,1505.4,323.4,-0.7,1.8,2470.454,13.34,0.034,290.6
2020-11-14T03:43:03,42.805,6.029,-0.013,0.014,-0.021,106.0,109.0,103.0,13.4,1505.4,322.6,-0.7,1.8,2470.426,13.34,0.019,317.1
2020-11-14T03:46:03,42.805,6.029,-0.04,0.011,-0.011,104.0,108.0,103.0,13.4,1505.4,323.4,-0.7,1.8,2470.414,13.34,0.041,285.4
2020-11-14T03:49:03,42.805,6.029,-0.009,0.016,0.006,105.0,108.0,101.0,13.4,1505.4,326.5,-0.7,1.8,2470.433,13.34,0.018,330.6
2020-11-14T03:52:03,42.805,6.029,-0.052,-0.002,-0.014,104.0,108.0,102.0,13.4,1505.4,325.2,-0.7,1.8,2470.455,13.34,0.052,267.8
2020-11-14T03:55:03,42.805,6.029,-0.002,0.0,-0.02,105.0,107.0,103.0,13.3,1505.4,326.2,-0.7,1.8,2470.459,13.34,0.002,270.0
2020-11-14T03:58:03,42.805,6.029,-0.006,-0.003,-0.012,105.0,108.0,102.0,13.4,1505.4,326.3,-0.7,1.8,2470.45,13.34,0.006,243.4
2020-11-14T04:04:03,42.805,6.029,0.013,-0.004,0.031,104.0,108.0,101.0,13.4,1505.3,327.8,-0.7,1.8,2470.503,13.32,0.013,107.1
2020-11-14T04:07:03,42.805,6.029,-0.009,0.016,0.015,104.0,107.0,102.0,13.4,1505.3,325.2,-0.7,1.8,2470.495,13.33,0.018,330.6
2020-11-14T04:10:03,42.805,6.029,-0.022,0.012,-0.013,104.0,108.0,102.0,13.4,1505.3,326.1,-0.8,1.8,2470.509,13.33,0.025,298.6
2020-11-14T04:13:03,42.805,6.029,0.016,0.011,-0.005,104.0,109.0,103.0,13.3,1505.3,327.5,-0.7,1.8,2470.459,13.33,0.019,55.5
2020-11-14T04:16:03,42.805,6.029,-0.001,0.014,0.017,103.0,108.0,102.0,13.3,1505.3,324.2,-0.7,1.9,2470.48,13.33,0.014,355.9
2020-11-14T04:19:03,42.805,6.029,0.002,0.01,0.003,104.0,108.0,102.0,13.3,1505.3,326.5,-0.7,1.8,2470.469,13.33,0.01,11.3
2020-11-14T04:22:03,42.805,6.029,-0.014,0.013,0.004,101.0,107.0,102.0,13.3,1505.3,327.6,-0.7,1.8,2470.477,13.33,0.019,312.9
2020-11-14T04:25:03,42.805,6.029,0.001,0.013,0.005,104.0,107.0,103.0,13.4,1505.4,324.0,-0.7,1.8,2470.496,13.34,0.013,4.4
2020-11-14T04:28:03,42.805,6.029,-0.001,0.009,0.016,105.0,108.0,102.0,13.4,1505.4,326.0,-0.7,1.8,2470.464,13.34,0.009,353.7
2020-11-14T04:31:03,42.805,6.029,-0.024,0.004,-0.02,105.0,108.0,101.0,13.4,1505.4,328.1,-0.7,1.8,2470.494,13.34,0.024,279.5
2020-11-14T04:34:03,42.805,6.029,-0.035,0.017,0.032,103.0,108.0,101.0,13.3,1505.4,328.4,-0.7,1.8,2470.514,13.34,0.038,295.9
2020-11-14T04:37:03,42.805,6.029,-0.017,0.016,-0.028,104.0,108.0,103.0,13.3,1505.4,328.1,-0.7,1.8,2470.481,13.34,0.023,313.3
2020-11-14T04:40:03,42.805,6.029,0.001,0.013,-0.017,105.0,108.0,102.0,13.4,1505.4,326.5,-0.7,1.9,2470.52,13.34,0.013,4.4
2020-11-14T04:43:03,42.805,6.029,-0.032,0.008,0.001,106.0,108.0,103.0,13.4,1505.4,324.5,-0.7,1.8,2470.495,13.34,0.032,284.0
2020-11-14T04:46:03,42.805,6.029,0.002,0.017,0.027,103.0,108.0,103.0,13.4,1505.4,326.6,-0.7,1.8,2470.511,13.34,0.017,6.7
2020-11-14T04:49:03,42.805,6.029,-0.008,0.001,0.004,105.0,108.0,102.0,13.4,1505.4,325.1,-0.7,1.9,2470.532,13.34,0.008,277.1
2020-11-14T04:52:03,42.805,6.029,-0.026,0.033,-0.019,104.0,108.0,103.0,13.4,1505.4,324.5,-0.7,1.8,2470.536,13.34,0.042,321.8
2020-11-14T04:55:03,42.805,6.029,0.011,0.001,0.004,104.0,108.0,101.0,13.3,1505.4,326.3,-0.7,1.8,2470.476,13.34,0.011,84.8
2020-11-14T04:58:03,42.805,6.029,0.002,0.001,-0.003,107.0,108.0,103.0,13.4,1505.4,323.9,-0.7,1.8,2470.494,13.34,0.002,63.4
2020-11-14T05:04:03,42.805,6.029,-0.031,0.005,-0.034,106.0,108.0,102.0,13.4,1505.3,323.4,-0.7,1.8,2470.579,13.32,0.031,279.2
2020-11-14T05:07:03,42.805,6.029,-0.024,0.0,0.02,106.0,108.0,103.0,13.4,1505.3,327.7,-0.7,1.9,2470.531,13.33,0.024,270.0
2020-11-14T05:10:03,42.805,6.029,-0.019,0.003,0.011,105.0,106.0,103.0,13.3,1505.3,326.0,-0.7,1.8,2470.503,13.33,0.019,279.0
2020-11-14T05:13:03,42.805,6.029,-0.006,0.029,0.011,103.0,107.0,102.0,13.3,1505.3,326.3,-0.7,1.8,2470.544,13.33,0.029,348.3
2020-11-14T05:16:03,42.805,6.029,-0.02,0.005,0.013,105.0,108.0,102.0,13.4,1505.3,323.4,-0.7,1.8,2470.59,13.33,0.02,284.0
2020-11-14T05:19:03,42.805,6.029,-0.008,0.018,0.02,103.0,108.0,102.0,13.4,1505.4,326.5,-0.7,1.8,2470.54,13.34,0.019,336.0
2020-11-14T05:22:03,42.805,6.029,-0.027,-0.004,0.023,103.0,106.0,103.0,13.3,1505.4,327.9,-0.7,1.9,2470.527,13.34,0.027,261.6
2020-11-14T05:25:03,42.805,6.029,-0.034,0.013,-0.004,103.0,108.0,101.0,13.4,1505.4,325.5,-0.7,1.8,2470.516,13.34,0.036,290.9
2020-11-14T05:28:03,42.805,6.029,-0.015,0.006,0.025,104.0,108.0,101.0,13.4,1505.4,322.9,-0.7,1.8,2470.552,13.34,0.016,291.8
2020-11-14T05:31:03,42.805,6.029,-0.028,-0.005,-0.046,103.0,106.0,102.0,13.3,1505.4,325.2,-0.7,1.9,2470.534,13.34,0.028,259.9
2020-11-14T05:34:03,42.805,6.029,-0.016,0.005,0.019,105.0,107.0,103.0,13.4,1505.4,324.5,-0.7,1.8,2470.564,13.34,0.016,287.4
2020-11-14T05:37:03,42.805,6.029,-0.003,0.024,-0.011,107.0,107.0,103.0,13.4,1505.3,328.0,-0.7,1.8,2470.541,13.33,0.024,352.9
2020-11-14T05:40:03,42.805,6.029,0.002,0.003,0.021,105.0,108.0,102.0,13.4,1505.3,324.0,-0.7,1.8,2470.526,13.33,0.003,33.7
2020-11-14T05:43:03,42.805,6.029,-0.026,0.004,-0.021,105.0,107.0,102.0,13.4,1505.4,322.8,-0.7,1.8,2470.555,13.34,0.026,278.7
2020-11-14T05:46:03,42.805,6.029,-0.032,0.008,0.001,105.0,106.0,102.0,13.4,1505.4,323.1,-0.7,1.8,2470.506,13.34,0.032,284.0
2020-11-14T05:49:03,42.805,6.029,-0.009,0.008,0.022,105.0,107.0,103.0,13.4,1505.3,324.6,-0.7,1.8,2470.555,13.33,0.012,311.6
2020-11-14T05:52:03,42.805,6.029,-0.02,0.025,-0.009,104.0,108.0,102.0,13.4,1505.3,327.2,-0.7,1.8,2470.534,13.33,0.032,321.3
2020-11-14T05:55:03,42.805,6.029,-0.042,0.002,-0.011,104.0,108.0,103.0,13.3,1505.3,325.8,-0.7,1.8,2470.523,13.33,0.042,272.7
2020-11-14T05:58:03,42.805,6.029,-0.011,0.009,0.016,104.0,107.0,103.0,13.4,1505.3,327.0,-0.7,1.8,2470.516,13.33,0.014,309.3
2020-11-14T06:04:03,42.805,6.029,-0.031,0.017,-0.003,106.0,108.0,102.0,13.4,1505.3,324.1,-0.7,1.8,2470.585,13.31,0.035,298.7
2020-11-14T06:07:03,42.805,6.029,-0.024,0.012,0.017,105.0,109.0,103.0,13.4,1505.3,327.5,-0.7,1.8,2470.58,13.32,0.026,296.6
2020-11-14T06:10:03,42.805,6.029,0.01,0.025,-0.005,106.0,109.0,102.0,13.3,1505.3,322.8,-0.7,1.8,2470.553,13.33,0.026,21.8
2020-11-14T06:13:03,42.805,6.029,-0.033,0.002,-0.009,105.0,107.0,103.0,13.4,1505.3,326.0,-0.7,1.8,2470.589,13.33,0.033,273.5
2020-11-14T06:16:03,42.805,6.029,-0.015,-0.001,-0.029,105.0,109.0,103.0,13.4,1505.3,324.8,-0.7,1.8,2470.588,13.33,0.015,266.2
2020-11-14T06:19:03,42.805,6.029,-0.006,0.015,0.038,105.0,108.0,101.0,13.3,1505.3,327.2,-0.7,1.8,2470.565,13.33,0.016,338.2
2020-11-14T06:22:03,42.805,6.029,0.0,0.007,0.032,105.0,109.0,102.0,13.4,1505.3,322.7,-0.7,1.8,2470.532,13.33,0.007,0.0
2020-11-14T06:25:03,42.805,6.029,-0.02,0.011,0.013,105.0,108.0,103.0,13.3,1505.3,323.2,-0.7,1.9,2470.535,13.33,0.022,298.8
2020-11-14T06:28:03,42.805,6.029,-0.038,0.011,0.008,105.0,108.0,103.0,13.3,1505.3,326.2,-0.7,1.8,2470.603,13.33,0.039,286.1
2020-11-14T06:31:03,42.805,6.029,-0.018,0.006,0.006,106.0,108.0,103.0,13.4,1505.3,325.0,-0.7,1.9,2470.544,13.33,0.018,288.4
2020-11-14T06:34:03,42.805,6.029,-0.03,0.027,0.016,106.0,107.0,102.0,13.4,1505.3,324.4,-0.7,1.9,2470.522,13.33,0.04,312.0
2020-11-14T06:37:03,42.805,6.029,-0.02,-0.002,-0.015,106.0,107.0,102.0,13.4,1505.3,326.1,-0.7,1.8,2470.519,13.33,0.02,264.3
2020-11-14T06:40:03,42.805,6.029,-0.008,0.012,0.008,106.0,108.0,104.0,13.3,1505.3,327.5,-0.7,1.8,2470.543,13.33,0.014,326.3
2020-11-14T06:43:03,42.805,6.029,0.0,0.018,-0.005,106.0,109.0,102.0,13.3,1505.3,327.9,-0.7,1.8,2470.547,13.33,0.018,0.0
2020-11-14T06:46:03,42.805,6.029,-0.037,0.032,-0.019,107.0,107.0,102.0,13.4,1505.3,327.5,-0.7,1.9,2470.541,13.33,0.048,310.9
2020-11-14T06:49:03,42.805,6.029,-0.048,0.004,-0.03,104.0,109.0,103.0,13.4,1505.3,324.8,-0.7,1.8,2470.566,13.33,0.048,274.8
2020-11-14T06:52:03,42.805,6.029,-0.011,0.01,-0.011,107.0,108.0,104.0,13.4,1505.3,323.5,-0.7,1.8,2470.517,13.33,0.014,312.3
2020-11-14T06:55:03,42.805,6.029,-0.019,-0.001,-0.019,105.0,108.0,105.0,13.3,1505.3,324.4,-0.7,1.8,2470.533,13.33,0.019,267.0
2020-11-14T06:58:03,42.805,6.029,-0.038,0.012,-0.008,106.0,109.0,103.0,13.4,1505.3,327.8,-0.7,1.9,2470.536,13.33,0.039,287.5
2020-11-14T07:04:03,42.805,6.029,-0.027,0.036,-0.03,105.0,110.0,103.0,13.3,1505.3,327.5,-0.8,1.8,2470.577,13.31,0.045,323.1
2020-11-14T07:07:03,42.805,6.029,-0.02,0.013,-0.005,105.0,108.0,104.0,13.4,1505.3,324.2,-0.7,1.8,2470.566,13.32,0.023,303.0
2020-11-14T07:10:03,42.805,6.029,-0.004,0.014,-0.015,108.0,107.0,103.0,13.4,1505.3,323.5,-0.7,1.8,2470.548,13.33,0.014,344.1
2020-11-14T07:13:03,42.805,6.029,-0.032,0.006,-0.007,107.0,108.0,103.0,13.4,1505.3,324.0,-0.7,1.8,2470.557,13.33,0.032,280.6
2020-11-14T07:16:03,42.805,6.029,-0.04,-0.004,-0.044,105.0,108.0,103.0,13.4,1505.3,327.2,-0.7,1.9,2470.553,13.33,0.04,264.3
2020-11-14T07:19:03,42.805,6.029,-0.024,0.008,0.01,105.0,109.0,102.0,13.3,1505.3,325.6,-0.7,1.9,2470.514,13.33,0.025,288.4
2020-11-14T07:22:03,42.805,6.029,-0.045,-0.012,-0.033,106.0,107.0,103.0,13.4,1505.3,324.2,-0.7,1.8,2470.538,13.33,0.046,255.1
2020-11-14T07:25:03,42.805,6.029,-0.011,0.014,0.006,105.0,110.0,103.0,13.4,1505.3,328.1,-0.7,1.8,2470.581,13.33,0.017,321.8
2020-11-14T07:28:03,42.805,6.029,-0.02,0.013,-0.008,104.0,109.0,103.0,13.3,1505.3,323.2,-0.7,1.8,2470.562,13.33,0.023,303.0
2020-11-14T07:31:03,42.805,6.029,-0.01,0.029,0.021,106.0,109.0,103.0,13.4,1505.3,325.6,-0.7,1.8,2470.526,13.33,0.03,341.0
2020-11-14T07:34:03,42.805,6.029,-0.014,0.026,-0.02,106.0,108.0,105.0,13.3,1505.3,325.0,-0.7,1.8,2470.527,13.33,0.029,331.7
2020-11-14T07:37:03,42.805,6.029,0.012,0.007,0.032,105.0,110.0,103.0,13.4,1505.3,324.9,-0.7,1.8,2470.512,13.33,0.013,59.7
2020-11-14T07:40:03,42.805,6.029,-0.034,0.018,-0.013,105.0,110.0,103.0,13.3,1505.3,327.2,-0.7,1.8,2470.526,13.33,0.038,297.9
2020-11-14T07:43:03,42.805,6.029,-0.05,0.01,0.014,106.0,110.0,103.0,13.4,1505.3,327.4,-0.7,1.8,2470.525,13.33,0.05,281.3
2020-11-14T07:46:03,42.805,6.029,-0.015,0.025,-0.01,107.0,109.0,103.0,13.3,1505.3,323.2,-0.7,1.8,2470.526,13.33,0.029,329.0
2020-11-14T07:49:03,42.805,6.029,-0.041,0.023,-0.018,106.0,110.0,103.0,13.3,1505.3,323.6,-0.7,1.8,2470.499,13.33,0.047,299.3
2020-11-14T07:52:03,42.805,6.029,-0.033,0.018,0.001,106.0,109.0,103.0,13.3,1505.3,325.6,-0.7,1.9,2470.54,13.33,0.037,298.6
2020-11-14T07:55:03,42.805,6.029,-0.014,0.008,0.004,107.0,109.0,102.0,13.3,1505.3,327.9,-0.7,1.8,2470.522,13.33,0.016,299.7
2020-11-14T07:58:03,42.805,6.029,-0.044,0.022,-0.056,107.0,110.0,103.0,13.4,1505.3,323.4,-0.7,1.8,2470.487,13.33,0.049,296.6
2020-11-14T08:04:03,42.805,6.029,-0.038,0.009,-0.031,106.0,112.0,104.0,13.4,1505.3,326.3,-0.8,1.8,2470.527,13.31,0.039,283.3
2020-11-14T08:07:03,42.805,6.029,-0.051,0.0,-0.017,105.0,113.0,103.0,13.4,1505.3,326.0,-0.7,1.8,2470.588,13.32,0.051,270.0
2020-11-14T08:10:03,42.805,6.029,-0.035,0.009,-0.023,106.0,112.0,102.0,13.4,1505.3,326.7,-0.7,1.8,2470.541,13.32,0.036,284.4
2020-11-14T08:13:03,42.805,6.029,-0.042,0.017,-0.021,107.0,113.0,103.0,13.4,1505.3,326.3,-0.7,1.8,2470.547,13.33,0.045,292.0
2020-11-14T08:16:03,42.805,6.029,-0.045,0.028,0.002,107.0,112.0,103.0,13.4,1505.3,326.3,-0.7,1.8,2470.523,13.33,0.053,301.9
2020-11-14T08:19:03,42.805,6.029,-0.063,0.017,-0.011,107.0,111.0,102.0,13.3,1505.3,326.6,-0.7,1.8,2470.492,13.33,0.065,285.1
2020-11-14T08:22:03,42.805,6.029,-0.049,0.021,-0.012,105.0,111.0,103.0,13.4,1505.3,324.6,-0.7,1.8,2470.508,13.33,0.053,293.2
2020-11-14T08:25:03,42.805,6.029,-0.049,0.004,-0.041,106.0,113.0,102.0,13.4,1505.3,324.6,-0.7,1.8,2470.514,13.33,0.049,274.7
2020-11-14T08:28:03,42.805,6.029,-0.036,0.01,-0.007,106.0,112.0,102.0,13.4,1505.3,326.8,-0.7,1.8,2470.509,13.33,0.037,285.5
2020-11-14T08:31:03,42.805,6.029,-0.039,0.018,0.008,105.0,113.0,103.0,13.4,1505.3,325.8,-0.7,1.8,2470.476,13.33,0.042,294.8
2020-11-14T08:34:03,42.805,6.029,-0.019,0.0,-0.002,105.0,110.0,105.0,13.3,1505.3,324.7,-0.7,1.8,2470.509,13.33,0.019,270.0
2020-11-14T08:37:03,42.805,6.029,-0.076,0.008,-0.05,106.0,114.0,102.0,13.3,1505.3,324.2,-0.7,1.9,2470.556,13.33,0.076,276.0
2020-11-14T08:40:03,42.805,6.029,-0.062,0.019,-0.013,106.0,114.0,103.0,13.4,1505.3,326.2,-0.7,1.9,2470.479,13.33,0.064,287.0
2020-11-14T08:43:03,42.805,6.029,-0.03,0.02,-0.019,107.0,113.0,103.0,13.4,1505.3,324.2,-0.7,1.8,2470.507,13.33,0.036,303.7
2020-11-14T08:46:03,42.805,6.029,-0.063,0.011,0.019,106.0,115.0,103.0,13.4,1505.3,325.6,-0.7,1.8,2470.54,13.33,0.063,279.9
2020-11-14T08:49:03,42.805,6.029,-0.058,0.024,-0.01,106.0,115.0,103.0,13.4,1505.3,325.9,-0.7,1.8,2470.513,13.33,0.062,292.5
2020-11-14T08:52:03,42.805,6.029,-0.059,0.008,-0.002,107.0,114.0,105.0,13.4,1505.3,323.1,-0.7,1.8,2470.503,13.33,0.059,277.7
2020-11-14T08:55:03,42.805,6.029,-0.048,0.025,-0.027,107.0,114.0,104.0,13.4,1505.3,327.0,-0.7,1.8,2470.473,13.33,0.054,297.5
2020-11-14T08:58:03,42.805,6.029,-0.061,0.02,-0.02,106.0,114.0,103.0,13.4,1505.3,325.3,-0.7,1.8,2470.484,13.33,0.064,288.1
2020-11-14T09:04:03,42.805,6.029,-0.061,0.02,-0.043,106.0,113.0,103.0,13.4,1505.3,327.2,-0.8,1.8,2470.526,13.31,0.064,288.1
2020-11-14T09:07:03,42.805,6.029,-0.055,0.026,-0.022,107.0,113.0,104.0,13.4,1505.3,324.0,-0.7,1.8,2470.524,13.32,0.06,295.3
2020-11-14T09:10:03,42.805,6.029,-0.055,0.022,0.003,106.0,114.0,103.0,13.4,1505.3,324.3,-0.7,1.8,2470.496,13.32,0.059,291.8
2020-11-14T09:13:03,42.805,6.029,-0.041,0.026,-0.008,106.0,114.0,102.0,13.4,1505.3,327.6,-0.7,1.8,2470.52,13.32,0.048,302.4
2020-11-14T09:16:03,42.805,6.029,-0.064,0.026,-0.009,106.0,113.0,103.0,13.4,1505.3,323.3,-0.7,1.8,2470.514,13.33,0.069,292.1
2020-11-14T09:19:03,42.805,6.029,-0.039,0.018,-0.013,105.0,113.0,103.0,13.4,1505.3,324.5,-0.7,1.8,2470.501,13.33,0.042,294.8
2020-11-14T09:22:03,42.805,6.029,-0.036,0.022,-0.018,105.0,114.0,103.0,13.4,1505.3,326.7,-0.7,1.8,2470.468,13.33,0.042,301.4
2020-11-14T09:25:03,42.805,6.029,-0.047,0.019,-0.034,106.0,114.0,103.0,13.4,1505.3,323.5,-0.7,1.8,2470.466,13.33,0.05,292.0
2020-11-14T09:28:03,42.805,6.029,-0.059,0.029,-0.029,106.0,115.0,102.0,13.4,1505.3,326.0,-0.7,1.8,2470.483,13.33,0.065,296.2
2020-11-14T09:31:03,42.805,6.029,-0.058,0.024,-0.027,108.0,113.0,102.0,13.3,1505.3,324.7,-0.7,1.8,2470.457,13.33,0.062,292.5
2020-11-14T09:34:03,42.805,6.029,-0.039,0.012,0.017,105.0,115.0,102.0,13.4,1505.3,326.2,-0.7,1.8,2470.522,13.33,0.04,287.1
2020-11-14T09:37:03,42.805,6.029,-0.026,0.004,-0.033,106.0,114.0,103.0,13.4,1505.3,326.4,-0.7,1.8,2470.476,13.33,0.026,278.7
2020-11-14T09:40:03,42.805,6.029,-0.025,0.028,0.02,105.0,113.0,104.0,13.4,1505.3,325.1,-0.7,1.8,2470.466,13.33,0.037,318.2
2020-11-14T09:43:03,42.805,6.029,-0.051,0.0,0.018,105.0,112.0,103.0,13.3,1505.3,325.3,-0.7,1.8,2470.462,13.33,0.051,270.0
2020-11-14T09:46:03,42.805,6.029,-0.042,0.013,0.041,105.0,113.0,104.0,13.3,1505.3,324.4,-0.7,1.8,2470.486,13.33,0.043,287.2
2020-11-14T09:49:03,42.805,6.029,-0.05,0.016,0.008,106.0,113.0,102.0,13.4,1505.3,327.5,-0.7,1.8,2470.464,13.33,0.052,287.7
2020-11-14T09:52:03,42.805,6.029,-0.042,0.011,-0.029,104.0,113.0,104.0,13.4,1505.3,323.0,-0.7,1.8,2470.439,13.33,0.043,284.7
2020-11-14T09:55:03,42.805,6.029,-0.049,0.041,-0.003,106.0,113.0,101.0,13.4,1505.3,326.3,-0.7,1.8,2470.454,13.33,0.063,309.9
2020-11-14T09:58:03,42.805,6.029,-0.079,0.03,-0.004,105.0,113.0,103.0,13.3,1505.3,325.6,-0.7,1.8,2470.421,13.33,0.084,290.8
2020-11-14T10:04:03,42.805,6.029,-0.037,0.035,0.029,105.0,114.0,103.0,13.4,1505.3,323.6,-0.7,1.8,2470.51,13.31,0.05,313.4
2020-11-14T10:07:03,42.805,6.029,-0.056,0.011,-0.029,105.0,113.0,101.0,13.4,1505.3,326.3,-0.7,1.8,2470.48,13.31,0.057,281.1